User: anonymous   Login
Location: Palmerston North
(40.3500°S, 175.6170°E)
Time: 13:51:08
(UTC+13:00)
Language:

USA 186 - Orbit

View from above orbital plane
View from above orbital plane
View from above satellite
View from above satellite

Ground track
Ground track

The orbit data is extracted from the following two-line orbital elements,

1 28888U 05042A   19076.81011740 0.00012000  00000-0  53994-4 0    00
2 28888  96.8829 116.0027 0137552 220.8032 139.1966 15.71072479    03
Epoch (UTC): 17 March 2019 19:26:34
Eccentricity: 0.0137552
inclination: 96.8829°
perigee height: 263 km
apogee height: 448 km
right ascension of ascending node: 116.0027°
argument of perigee: 220.8032°
revolutions per day: 15.71072479
mean anomaly at epoch: 139.1966°
orbit number at epoch: 0

The dashed part of the orbit path shows where the satellite is in the earth's shadow,  

DLR